To NAV CANADA Home Page Login to a new session Search on AWWS site Feedback and Comments Disclaimer Vers la page française équivalente Tips FAQ What's new on the site To the Forecasts and Observations / NOTAM section To "File a Flight Plan" website Publications and other links Update of the User's profile FIC Telephone Numbers My Weather Data Folder Route Weather Data Regional Weather Data Local Weather Data To the Forecasts and Observations / NOTAM section
Request Generated 05/30/2015 at 04:03:59 UTC . Weather information available at that time is displayed.

METAR/TAF

OTTAWA/GATINEAU/QC    

LWIS CYND 300400Z AUTO 00000KT 16/14 A3005=
LWIS CYND 300300Z AUTO 00000KT 16/13 A3006=
LWIS CYND 300200Z AUTO 00000KT 16/14 A3008=

*** REMARK        : Forecast period has ended; this was the last TAF issued
*** REMARQUE : La période de prévision est échue; ceci était le dernier TAF qui a été émis
TAF CYND 291738Z 2918/3001 16005KT P6SM BKN240
RMK NXT FCST WILL BE ISSUED AT 301245Z=
Your time UTC time
Weather data provided by Environment Canada and NAV CANADA